Time,TemperatureF,DewpointF,PressureIn,WindDirection,WindDirectionDegrees,WindSpeedMPH,WindSpeedGustMPH,Humidity,HourlyPrecipIn,Conditions,Clouds,dailyrainin,SoftwareType,DateUTC
2013-01-20 00:02:00,29.0,4.0,30.26,SSW,213,9.0,19.0,33,0.00,,,0.00,,2013-01-20 07:02:00,
2013-01-20 00:12:00,29.0,4.0,30.26,SSW,213,9.0,19.0,33,0.00,,,0.00,,2013-01-20 07:12:00,
2013-01-20 00:22:00,29.0,4.0,30.27,SW,215,10.0,14.0,33,0.00,,,0.00,,2013-01-20 07:22:00,
2013-01-20 00:32:00,28.0,3.0,30.25,SW,227,11.0,14.0,34,0.00,,,0.00,,2013-01-20 07:32:00,
2013-01-20 00:42:00,28.0,3.0,30.25,SW,227,11.0,14.0,34,0.00,,,0.00,,2013-01-20 07:42:00,
2013-01-20 00:52:00,28.0,3.0,30.24,WSW,253,14.0,19.0,34,0.00,,,0.00,,2013-01-20 07:52:00,
2013-01-20 01:02:00,26.0,3.0,30.25,WSW,255,10.0,15.0,37,0.00,,,0.00,,2013-01-20 08:02:00,
2013-01-20 01:12:00,26.0,3.0,30.25,WSW,255,10.0,15.0,37,0.00,,,0.00,,2013-01-20 08:12:00,
2013-01-20 01:22:00,27.0,4.0,30.26,West,267,13.0,21.0,36,0.00,,,0.00,,2013-01-20 08:22:00,
2013-01-20 01:32:00,26.0,4.0,30.25,WSW,255,12.0,19.0,38,0.00,,,0.00,,2013-01-20 08:32:00,
2013-01-20 01:42:00,26.0,4.0,30.25,WSW,255,12.0,19.0,38,0.00,,,0.00,,2013-01-20 08:42:00,
2013-01-20 01:52:00,25.0,4.0,30.24,WSW,240,14.0,21.0,39,0.00,,,0.00,,2013-01-20 08:52:00,
2013-01-20 02:02:00,25.0,4.0,30.24,SW,227,13.0,19.0,40,0.00,,,0.00,,2013-01-20 09:02:00,
2013-01-20 02:12:00,25.0,4.0,30.24,SW,227,13.0,19.0,40,0.00,,,0.00,,2013-01-20 09:12:00,
2013-01-20 02:22:00,26.0,4.0,30.24,West,261,11.0,18.0,39,0.00,,,0.00,,2013-01-20 09:22:00,
2013-01-20 02:33:00,26.0,4.0,30.24,SW,232,11.0,22.0,38,0.00,,,0.00,,2013-01-20 09:33:00,
2013-01-20 02:42:00,26.0,4.0,30.24,SW,232,11.0,22.0,38,0.00,,,0.00,,2013-01-20 09:42:00,
2013-01-20 02:53:00,26.0,4.0,30.24,WSW,246,13.0,22.0,38,0.00,,,0.00,,2013-01-20 09:53:00,
2013-01-20 03:02:00,26.0,4.0,30.24,SW,221,14.0,23.0,38,0.00,,,0.00,,2013-01-20 10:02:00,
2013-01-20 03:12:00,26.0,4.0,30.24,SW,221,14.0,23.0,38,0.00,,,0.00,,2013-01-20 10:12:00,
2013-01-20 03:22:00,26.0,4.0,30.24,WSW,244,13.0,22.0,39,0.00,,,0.00,,2013-01-20 10:22:00,
2013-01-20 03:32:00,25.0,4.0,30.23,SSW,207,15.0,21.0,39,0.00,,,0.00,,2013-01-20 10:32:00,
2013-01-20 03:42:00,25.0,4.0,30.23,SSW,207,15.0,21.0,39,0.00,,,0.00,,2013-01-20 10:42:00,
2013-01-20 03:52:00,25.0,4.0,30.22,WSW,238,13.0,21.0,40,0.00,,,0.00,,2013-01-20 10:52:00,
2013-01-20 04:02:00,26.0,4.0,30.22,SSW,194,13.0,25.0,39,0.00,,,0.00,,2013-01-20 11:02:00,
2013-01-20 04:12:00,26.0,4.0,30.23,WSW,253,14.0,24.0,38,0.00,,,0.00,,2013-01-20 11:12:00,
2013-01-20 04:22:00,26.0,4.0,30.23,WSW,253,14.0,24.0,38,0.00,,,0.00,,2013-01-20 11:22:00,
2013-01-20 04:32:00,26.0,4.0,30.22,West,259,15.0,26.0,38,0.00,,,0.00,,2013-01-20 11:32:00,
2013-01-20 04:42:00,26.0,4.0,30.22,West,259,15.0,26.0,38,0.00,,,0.00,,2013-01-20 11:42:00,
2013-01-20 04:53:00,25.0,4.0,30.25,WSW,249,12.0,20.0,39,0.00,,,0.00,,2013-01-20 11:53:00,
2013-01-20 05:03:00,24.0,3.0,30.26,SW,234,8.0,19.0,40,0.00,,,0.00,,2013-01-20 12:03:00,
2013-01-20 05:12:00,24.0,3.0,30.26,SW,234,8.0,19.0,40,0.00,,,0.00,,2013-01-20 12:12:00,
2013-01-20 05:23:00,23.0,3.0,30.26,SSW,192,9.0,17.0,41,0.00,,,0.00,,2013-01-20 12:23:00,
2013-01-20 05:33:00,23.0,3.0,30.27,South,178,7.0,15.0,41,0.00,,,0.00,,2013-01-20 12:33:00,
2013-01-20 05:43:00,23.0,3.0,30.27,South,178,7.0,15.0,41,0.00,,,0.00,,2013-01-20 12:43:00,
2013-01-20 05:53:00,23.0,2.0,30.28,SW,232,8.0,19.0,40,0.00,,,0.00,,2013-01-20 12:53:00,
2013-01-20 06:02:00,21.0,2.0,30.27,SW,232,10.0,18.0,43,0.00,,,0.00,,2013-01-20 13:02:00,
2013-01-20 06:12:00,21.0,2.0,30.27,SW,232,10.0,18.0,43,0.00,,,0.00,,2013-01-20 13:12:00,
2013-01-20 06:23:00,23.0,2.0,30.27,SW,230,12.0,18.0,40,0.00,,,0.00,,2013-01-20 13:23:00,
2013-01-20 06:33:00,23.0,2.0,30.28,WSW,251,12.0,18.0,40,0.00,,,0.00,,2013-01-20 13:33:00,
2013-01-20 06:42:00,23.0,2.0,30.28,WSW,251,12.0,18.0,40,0.00,,,0.00,,2013-01-20 13:42:00,
2013-01-20 06:53:00,24.0,2.0,30.27,SSW,196,11.0,18.0,37,0.00,,,0.00,,2013-01-20 13:53:00,
2013-01-20 07:02:00,25.0,1.0,30.29,WSW,254,9.0,18.0,35,0.00,,,0.00,,2013-01-20 14:02:00,
2013-01-20 07:12:00,25.0,1.0,30.29,WSW,254,9.0,18.0,35,0.00,,,0.00,,2013-01-20 14:12:00,
2013-01-20 07:22:00,24.0,2.0,30.28,SW,222,9.0,14.0,37,0.00,,,0.00,,2013-01-20 14:22:00,
2013-01-20 07:32:00,25.0,2.0,30.29,WSW,256,9.0,14.0,37,0.00,,,0.00,,2013-01-20 14:32:00,
2013-01-20 07:42:00,25.0,2.0,30.29,WSW,256,9.0,14.0,37,0.00,,,0.00,,2013-01-20 14:42:00,
2013-01-20 07:53:00,26.0,2.0,30.30,WSW,240,13.0,18.0,35,0.00,,,0.00,,2013-01-20 14:53:00,
2013-01-20 08:03:00,26.0,2.0,30.29,WSW,251,13.0,19.0,34,0.00,,,0.00,,2013-01-20 15:03:00,
2013-01-20 08:12:00,26.0,2.0,30.29,WSW,251,13.0,19.0,34,0.00,,,0.00,,2013-01-20 15:12:00,
2013-01-20 08:23:00,27.0,2.0,30.30,SW,236,9.0,14.0,34,0.00,,,0.00,,2013-01-20 15:23:00,
2013-01-20 08:33:00,27.0,2.0,30.30,WSW,242,10.0,16.0,34,0.00,,,0.00,,2013-01-20 15:33:00,
2013-01-20 08:42:00,27.0,2.0,30.30,WSW,242,10.0,16.0,34,0.00,,,0.00,,2013-01-20 15:42:00,
2013-01-20 08:53:00,27.0,2.0,30.30,WSW,240,11.0,17.0,34,0.00,,,0.00,,2013-01-20 15:53:00,
2013-01-20 09:02:00,28.0,3.0,30.30,WSW,241,10.0,16.0,33,0.00,,,0.00,,2013-01-20 16:02:00,
2013-01-20 09:12:00,28.0,3.0,30.30,WSW,241,10.0,16.0,33,0.00,,,0.00,,2013-01-20 16:12:00,
2013-01-20 09:23:00,28.0,3.0,30.31,West,260,6.0,12.0,34,0.00,,,0.00,,2013-01-20 16:23:00,
2013-01-20 09:33:00,28.0,3.0,30.31,West,260,6.0,12.0,34,0.00,,,0.00,,2013-01-20 16:33:00,
2013-01-20 09:42:00,28.0,3.0,30.31,West,260,6.0,12.0,34,0.00,,,0.00,,2013-01-20 16:42:00,
2013-01-20 09:53:00,30.0,4.0,30.31,WSW,240,13.0,18.0,32,0.00,,,0.00,,2013-01-20 16:53:00,
2013-01-20 10:00:00,31.0,4.0,30.31,West,269,12.0,17.0,31,0.00,,,0.00,,2013-01-20 17:00:00,
2013-01-20 10:03:00,31.0,4.0,30.30,WSW,242,8.0,17.0,31,0.00,,,0.00,,2013-01-20 17:03:00,
2013-01-20 10:13:00,31.0,4.0,30.30,WSW,242,8.0,17.0,31,0.00,,,0.00,,2013-01-20 17:13:00,
2013-01-20 10:22:00,31.0,4.0,30.31,West,269,12.0,17.0,31,0.00,,,0.00,,2013-01-20 17:22:00,
2013-01-20 10:33:00,31.0,4.0,30.31,West,269,12.0,17.0,31,0.00,,,0.00,,2013-01-20 17:33:00,
2013-01-20 10:42:00,31.0,4.0,30.31,West,269,12.0,17.0,31,0.00,,,0.00,,2013-01-20 17:42:00,
2013-01-20 10:53:00,31.0,4.0,30.31,West,269,12.0,17.0,31,0.00,,,0.00,,2013-01-20 17:53:00,
2013-01-20 23:03:00,27.0,5.0,30.25,West,275,7.0,21.0,38,0.00,,,0.00,,2013-01-21 06:03:00,
2013-01-20 23:12:00,27.0,5.0,30.25,West,275,7.0,21.0,38,0.00,,,0.00,,2013-01-21 06:12:00,
2013-01-20 23:23:00,26.0,4.0,30.25,NW,322,1.0,6.0,39,0.00,,,0.00,,2013-01-21 06:23:00,
2013-01-20 23:33:00,27.0,5.0,30.22,WNW,300,3.0,15.0,38,0.00,,,0.00,,2013-01-21 06:33:00,
2013-01-20 23:43:00,27.0,5.0,30.22,WNW,300,3.0,15.0,38,0.00,,,0.00,,2013-01-21 06:43:00,
2013-01-20 23:53:00,27.0,5.0,30.21,East,82,6.0,13.0,38,0.00,,,0.00,,2013-01-21 06:53:00,